Weather History for Cando, ND

Change the Weather History Date:

Tuesday, February 12, 2013

  Actual Average (KDVL) Record (KDVL)
Temperature  
Mean Temperature 17 °F -  
Max Temperature 28 °F 21 °F 46 °F (1977)
Min Temperature 6 °F 2 °F -25 °F (1955)
Degree Days  
Heating Degree Days 48    
Moisture  
Dew Point 18 °F    
Average Humidity 89    
Maximum Humidity 93    
Minimum Humidity 79    
Precipitation  
Precipitation 0.00 in - - ()
Sea Level Pressure  
Sea Level Pressure 29.73 in    
Wind  
Wind Speed 15 mph (West)    
Max Wind Speed 24 mph    
Max Gust Speed 28 mph    
Visibility 10 miles    
Events      
Averages and records for this station are not official NWS values.
T = Trace of Precipitation, MM = Missing Value Source: NWS Daily Summary

Daily Weather History Graph

Daily Weather History Graph

Search for Another Location

Airport:

Trip Planner

Search our weather history database for the weather conditions in past years. The results will help you decide how hot, cold, wet, or windy it might be!

Date:

Astronomy

Feb. 12, 2013 Rise Set
Actual Time 7:48 AM CST 5:54 PM CST
Civil Twilight 7:16 AM CST 6:26 PM CST
Nautical Twilight 6:39 AM CST 7:03 PM CST
Astronomical Twilight 6:03 AM CST 7:39 PM CST
Moon 8:29 AM CST (2/12) 9:16 PM CST (2/12)
Length of Visible Light 11h 10m
Length of Day
10h 05m
Waxing Crescent, 7% of the Moon is Illuminated
Feb 12
Waxing Crescent
Feb 17
First Quarter
Feb 25
Full
Mar 4
Last Quarter
Mar 11
New

Hourly Weather History & Observations

Time (CST) Temp. Windchill Dew Point Humidity Pressure Visibility Wind Dir Wind Speed Gust Speed Precip Events Conditions
12:15 AM 17.6 °F 2.2 °F 15.8 °F 93% 29.73 in 10.0 mi WSW 17.3 mph - N/A   Clear
12:35 AM 17.6 °F 2.7 °F 15.8 °F 93% 29.73 in 10.0 mi SW 16.1 mph - N/A   Clear
12:55 AM 17.6 °F 3.2 °F 14.0 °F 86% 29.73 in 10.0 mi SW 15.0 mph - N/A   Clear
1:15 AM 15.8 °F 2.1 °F 14.0 °F 93% 29.72 in 10.0 mi WSW 12.7 mph - N/A   Clear
1:35 AM 15.8 °F 2.1 °F 14.0 °F 93% 29.71 in 10.0 mi WSW 12.7 mph - N/A   Partly Cloudy
1:55 AM 15.8 °F 1.4 °F 14.0 °F 93% 29.72 in 10.0 mi West 13.8 mph - N/A   Mostly Cloudy
2:15 AM 17.6 °F 4.3 °F 14.0 °F 86% 29.72 in 10.0 mi West 12.7 mph - N/A   Scattered Clouds
2:35 AM 15.8 °F 2.7 °F 14.0 °F 93% 29.73 in 10.0 mi West 11.5 mph - N/A   Clear
2:55 AM 15.8 °F 2.1 °F 10.4 °F 79% 29.72 in 10.0 mi West 12.7 mph - N/A   Clear
3:15 AM 12.2 °F -0.2 °F 8.6 °F 85% 29.72 in 10.0 mi West 9.2 mph - N/A   Clear
3:35 AM 12.2 °F -1.8 °F 8.6 °F 85% 29.72 in 10.0 mi West 11.5 mph - N/A   Clear
3:55 AM 10.4 °F -2.4 °F 8.6 °F 92% 29.71 in 10.0 mi West 9.2 mph - N/A   Clear
4:15 AM 12.2 °F -2.5 °F 8.6 °F 85% 29.72 in 10.0 mi West 12.7 mph - N/A   Clear
4:35 AM 10.4 °F -2.4 °F 8.6 °F 92% 29.72 in 10.0 mi West 9.2 mph - N/A   Clear
4:55 AM 10.4 °F -4.1 °F 8.6 °F 92% 29.72 in 10.0 mi WNW 11.5 mph - N/A   Clear
5:15 AM 10.4 °F -3.3 °F 8.6 °F 92% 29.72 in 10.0 mi WNW 10.4 mph - N/A   Clear
5:35 AM 12.2 °F -3.1 °F 8.6 °F 85% 29.73 in 10.0 mi WNW 13.8 mph - N/A   Clear
5:55 AM 12.2 °F -4.8 °F 8.6 °F 85% 29.73 in 10.0 mi WNW 17.3 mph - N/A   Clear
6:15 AM 10.4 °F -4.1 °F 8.6 °F 92% 29.74 in 10.0 mi WNW 11.5 mph - N/A   Clear
6:35 AM 10.4 °F -3.3 °F 6.8 °F 85% 29.74 in 10.0 mi WNW 10.4 mph - N/A   Clear
6:55 AM 10.4 °F -2.4 °F 6.8 °F 85% 29.74 in 10.0 mi West 9.2 mph - N/A   Clear
7:15 AM 8.6 °F -4.7 °F 6.8 °F 92% 29.73 in 10.0 mi West 9.2 mph - N/A   Clear
7:35 AM 8.6 °F -4.7 °F 5.0 °F 85% 29.74 in 10.0 mi West 9.2 mph - N/A   Partly Cloudy
7:55 AM 6.8 °F -3.5 °F 5.0 °F 92% 29.74 in 10.0 mi West 5.8 mph - N/A   Clear
8:15 AM 6.8 °F -6.9 °F 3.2 °F 85% 29.75 in 10.0 mi West 9.2 mph - N/A   Clear
8:35 AM 10.4 °F -6.0 °F 8.6 °F 92% 29.76 in 10.0 mi West 15.0 mph - N/A   Clear
8:55 AM 10.4 °F -3.3 °F 8.6 °F 92% 29.76 in 10.0 mi West 10.4 mph - N/A   Clear
9:15 AM 12.2 °F -0.2 °F 8.6 °F 85% 29.76 in 10.0 mi West 9.2 mph - N/A   Clear
9:35 AM 14.0 °F -0.8 °F 10.4 °F 86% 29.76 in 10.0 mi West 13.8 mph - N/A   Clear
9:55 AM 15.8 °F 1.4 °F 12.2 °F 86% 29.76 in 10.0 mi West 13.8 mph - N/A   Clear
10:15 AM 17.6 °F 2.7 °F 14.0 °F 86% 29.76 in 10.0 mi WNW 16.1 mph - N/A   Clear
10:35 AM 19.4 °F 5.5 °F 15.8 °F 86% 29.76 in 10.0 mi West 15.0 mph - N/A   Mostly Cloudy
10:55 AM 19.4 °F 5.5 °F 15.8 °F 86% 29.76 in 10.0 mi West 15.0 mph - N/A   Overcast
11:15 AM 19.4 °F 4.5 °F 17.6 °F 93% 29.76 in 10.0 mi West 17.3 mph - N/A   Mostly Cloudy
11:35 AM 21.2 °F 5.2 °F 19.4 °F 93% 29.76 in 10.0 mi West 21.9 mph 25.3 mph N/A   Overcast
11:55 AM 23.0 °F 8.3 °F 19.4 °F 86% 29.76 in 10.0 mi West 19.6 mph - N/A   Overcast
12:15 PM 24.8 °F 9.6 °F 21.2 °F 86% 29.76 in 10.0 mi West 23.0 mph 27.6 mph N/A   Overcast
12:35 PM 24.8 °F 10.0 °F 21.2 °F 86% 29.75 in 10.0 mi West 21.9 mph - N/A   Mostly Cloudy
12:55 PM 24.8 °F 11.1 °F 23.0 °F 93% 29.75 in 10.0 mi West 18.4 mph - N/A   Mostly Cloudy
1:15 PM 24.8 °F 9.3 °F 23.0 °F 93% 29.75 in 10.0 mi West 24.2 mph - N/A   Mostly Cloudy
1:35 PM 26.6 °F 12.4 °F 23.0 °F 86% 29.75 in 10.0 mi West 21.9 mph - N/A   Overcast
1:55 PM 26.6 °F 13.1 °F 23.0 °F 86% 29.75 in 10.0 mi West 19.6 mph 26.5 mph N/A   Overcast
2:15 PM 26.6 °F 12.7 °F 23.0 °F 86% 29.74 in 10.0 mi West 20.7 mph - N/A   Overcast
2:35 PM 26.6 °F 13.4 °F 23.0 °F 86% 29.74 in 10.0 mi West 18.4 mph - N/A   Overcast
2:55 PM 26.6 °F 13.8 °F 24.8 °F 93% 29.74 in 10.0 mi West 17.3 mph - N/A   Overcast
3:15 PM 28.4 °F 15.1 °F 24.8 °F 86% 29.74 in 10.0 mi West 20.7 mph - N/A   Scattered Clouds
3:35 PM 28.4 °F 15.1 °F 24.8 °F 86% 29.74 in 10.0 mi West 20.7 mph - N/A   Scattered Clouds
3:55 PM 28.4 °F 15.1 °F 24.8 °F 86% 29.74 in 10.0 mi West 20.7 mph - N/A   Mostly Cloudy
4:15 PM 28.4 °F 14.7 °F 24.8 °F 86% 29.73 in 10.0 mi West 21.9 mph - N/A   Overcast
4:35 PM 28.4 °F 14.7 °F 24.8 °F 86% 29.74 in 10.0 mi West 21.9 mph - N/A   Mostly Cloudy
4:55 PM 28.4 °F 14.1 °F 24.8 °F 86% 29.74 in 10.0 mi West 24.2 mph - N/A   Partly Cloudy
5:15 PM 26.6 °F 12.4 °F 24.8 °F 93% 29.74 in 10.0 mi West 21.9 mph 26.5 mph N/A   Mostly Cloudy
5:35 PM 28.4 °F 14.7 °F 24.8 °F 86% 29.74 in 10.0 mi West 21.9 mph - N/A   Overcast
5:55 PM 28.4 °F 15.4 °F 24.8 °F 86% 29.74 in 10.0 mi West 19.6 mph - N/A   Overcast
6:15 PM 28.4 °F 16.2 °F 26.6 °F 93% 29.74 in 10.0 mi West 17.3 mph - N/A   Overcast
6:35 PM 28.4 °F 16.6 °F 24.8 °F 86% 29.74 in 10.0 mi West 16.1 mph - N/A   Overcast
6:55 PM 26.6 °F 14.7 °F 23.0 °F 86% 29.74 in 10.0 mi West 15.0 mph - N/A   Overcast
7:15 PM 26.6 °F 15.2 °F 24.8 °F 93% 29.74 in 10.0 mi West 13.8 mph - N/A   Overcast
7:35 PM 26.6 °F 14.3 °F 24.8 °F 93% 29.74 in 10.0 mi West 16.1 mph - N/A   Overcast
7:55 PM 28.4 °F 17.5 °F 26.6 °F 93% 29.74 in 10.0 mi West 13.8 mph - N/A   Overcast
8:15 PM 28.4 °F 17.5 °F 26.6 °F 93% 29.74 in 10.0 mi West 13.8 mph - N/A   Overcast
8:35 PM 28.4 °F 17.5 °F 26.6 °F 93% 29.73 in 10.0 mi West 13.8 mph - N/A   Overcast
8:55 PM 28.4 °F 17.5 °F 26.6 °F 93% 29.73 in 10.0 mi West 13.8 mph - N/A   Overcast
9:15 PM 28.4 °F 17.0 °F 26.6 °F 93% 29.72 in 10.0 mi West 15.0 mph - N/A   Overcast
9:35 PM 26.6 °F 15.7 °F 24.8 °F 93% 29.71 in 10.0 mi West 12.7 mph - N/A   Partly Cloudy
9:55 PM 26.6 °F 15.7 °F 24.8 °F 93% 29.70 in 10.0 mi West 12.7 mph - N/A   Clear
10:15 PM 26.6 °F 15.2 °F 24.8 °F 93% 29.69 in 10.0 mi West 13.8 mph - N/A   Clear
10:35 PM 26.6 °F 14.7 °F 24.8 °F 93% 29.68 in 10.0 mi West 15.0 mph - N/A   Clear
10:55 PM 26.6 °F 14.7 °F 24.8 °F 93% 29.68 in 10.0 mi West 15.0 mph - N/A   Clear
11:15 PM 26.6 °F 14.3 °F 24.8 °F 93% 29.68 in 10.0 mi West 16.1 mph - N/A   Clear
11:35 PM 24.8 °F 12.4 °F 23.0 °F 93% 29.69 in 10.0 mi West 15.0 mph - N/A   Clear
11:55 PM 24.8 °F 14.6 °F 23.0 °F 93% 29.69 in 10.0 mi West 10.4 mph - N/A   Clear